| time (UTC) | temp C | wind direction | speed KPH | gust KPH | rain 1hr cm | rain 24hr cm | rain mn cm | humidity % | barometer mb |
| 20260504100425 | 8 | 244 | 1.6 | 1.6 | 0.00 | 0.00 | 0.00 | 69 | 1009.9 |
| 20260504081817 | 8 | 245 | 0.0 | 4.8 | 0.00 | 0.00 | 0.00 | 57 | 1010.7 |
| 20260504081308 | 9 | 161 | 1.6 | 6.4 | 0.00 | 0.00 | 0.00 | 55 | 1010.6 |
| 20260504080804 | 9 | 161 | 1.6 | 6.4 | 0.00 | 0.00 | 0.00 | 55 | 1010.6 |
| 20260504080301 | 9 | 224 | 4.8 | 16.1 | 0.00 | 0.00 | 0.00 | 56 | 1010.8 |
| 20260504070228 | 6 | 242 | 0.0 | 1.6 | 0.00 | 0.00 | 0.00 | 75 | 1010.6 |
| 20260504060149 | 5 | 137 | 0.0 | 0.0 | 0.00 | 0.00 | 0.00 | 83 | 1011.2 |
| 20260504050617 | 5 | 316 | 0.0 | 0.0 | 0.00 | 0.00 | 0.00 | 85 | 1011.6 |
| 20260504050114 | 4 | 316 | 0.0 | 0.0 | 0.00 | 0.00 | 0.00 | 86 | 1011.4 |
| 20260504045611 | 4 | 316 | 0.0 | 0.0 | 0.00 | 0.00 | 0.00 | 85 | 1011.4 |
| 20260504045106 | 4 | 316 | 0.0 | 0.0 | 0.00 | 0.00 | 0.00 | 84 | 1011.4 |
| 20260504044604 | 3 | 316 | 0.0 | 0.0 | 0.00 | 0.00 | 0.00 | 85 | 1011.3 |
| 20260504044100 | 3 | 316 | 0.0 | 0.0 | 0.00 | 0.00 | 0.00 | 86 | 1011.2 |
| 20260504043558 | 3 | 316 | 0.0 | 0.0 | 0.00 | 0.00 | 0.00 | 87 | 1011.1 |
| 20260504043055 | 3 | 316 | 0.0 | 0.0 | 0.00 | 0.00 | 0.00 | 87 | 1011.4 |
| 20260504042552 | 3 | 316 | 0.0 | 0.0 | 0.00 | 0.00 | 0.00 | 88 | 1011.4 |
| 20260504042049 | 3 | 316 | 0.0 | 0.0 | 0.00 | 0.00 | 0.00 | 89 | 1011.3 |
| 20260504041545 | 2 | 316 | 0.0 | 0.0 | 0.00 | 0.00 | 0.00 | 88 | 1011.3 |
| 20260504041041 | 2 | 316 | 0.0 | 0.0 | 0.00 | 0.00 | 0.00 | 88 | 1011.0 |
| 20260504040538 | 2 | 316 | 0.0 | 0.0 | 0.00 | 0.00 | 0.00 | 89 | 1011.4 |
| 20260504040035 | 2 | 316 | 0.0 | 1.6 | 0.00 | 0.00 | 0.00 | 88 | 1011.2 |
| 20260504035532 | 2 | 316 | 0.0 | 0.0 | 0.00 | 0.00 | 0.00 | 90 | 1011.5 |
| 20260504035028 | 2 | 316 | 0.0 | 0.0 | 0.00 | 0.00 | 0.00 | 88 | 1011.6 |
| 20260504034526 | 2 | 316 | 0.0 | 0.0 | 0.00 | 0.00 | 0.00 | 88 | 1011.5 |
| 20260504034023 | 2 | 316 | 0.0 | 0.0 | 0.00 | 0.00 | 0.00 | 87 | 1011.4 |
| 20260504033521 | 2 | 316 | 0.0 | 0.0 | 0.00 | 0.00 | 0.00 | 88 | 1011.5 |
| 20260504033018 | 2 | 316 | 0.0 | 0.0 | 0.00 | 0.00 | 0.00 | 88 | 1011.4 |
| 20260504032515 | 2 | 316 | 0.0 | 0.0 | 0.00 | 0.00 | 0.00 | 87 | 1011.4 |
| 20260504032011 | 2 | 316 | 0.0 | 1.6 | 0.00 | 0.00 | 0.00 | 84 | 1011.6 |
| 20260504031509 | 2 | 316 | 0.0 | 0.0 | 0.00 | 0.00 | 0.00 | 84 | 1011.6 |
| 20260504031005 | 2 | 316 | 0.0 | 0.0 | 0.00 | 0.00 | 0.00 | 82 | 1011.5 |
| 20260504030502 | 2 | 316 | 0.0 | 1.6 | 0.00 | 0.00 | 0.00 | 83 | 1011.6 |
| 20260504025958 | 3 | 315 | 0.0 | 0.0 | 0.00 | 0.00 | 0.00 | 82 | 1011.6 |
| 20260504025455 | 3 | 315 | 0.0 | 0.0 | 0.00 | 0.00 | 0.00 | 81 | 1011.6 |
| 20260504024952 | 3 | 315 | 0.0 | 1.6 | 0.00 | 0.00 | 0.00 | 79 | 1011.6 |
| 20260504024449 | 3 | 308 | 0.0 | 0.0 | 0.00 | 0.00 | 0.00 | 81 | 1011.6 |
| 20260504023946 | 3 | 299 | 0.0 | 1.6 | 0.00 | 0.00 | 0.00 | 79 | 1011.6 |
| 20260504023442 | 3 | 260 | 0.0 | 0.0 | 0.00 | 0.00 | 0.00 | 80 | 1012.0 |
| 20260504022938 | 3 | 308 | 0.0 | 1.6 | 0.00 | 0.00 | 0.00 | 79 | 1011.5 |
| 20260504022435 | 3 | 286 | 1.6 | 1.6 | 0.00 | 0.00 | 0.00 | 79 | 1011.4 |
| 20260504021931 | 4 | 282 | 0.0 | 0.0 | 0.00 | 0.00 | 0.00 | 78 | 1011.6 |
| 20260504021429 | 3 | 282 | 0.0 | 0.0 | 0.00 | 0.00 | 0.00 | 78 | 1011.5 |
| 20260504020926 | 4 | 282 | 0.0 | 0.0 | 0.00 | 0.00 | 0.00 | 81 | 1011.6 |
| 20260504020422 | 4 | 282 | 0.0 | 0.0 | 0.00 | 0.00 | 0.00 | 80 | 1011.8 |
| 20260504015919 | 5 | 282 | 0.0 | 0.0 | 0.00 | 0.00 | 0.00 | 77 | 1011.5 |
| 20260504015415 | 5 | 282 | 0.0 | 0.0 | 0.00 | 0.00 | 0.00 | 74 | 1011.6 |
| 20260504014911 | 5 | 239 | 0.0 | 0.0 | 0.00 | 0.00 | 0.00 | 76 | 1011.6 |
| 20260504014407 | 5 | 307 | 0.0 | 0.0 | 0.00 | 0.00 | 0.00 | 75 | 1011.6 |
| 20260504013904 | 6 | 308 | 0.0 | 0.0 | 0.00 | 0.00 | 0.00 | 73 | 1011.7 |
| 20260504013403 | 6 | 316 | 0.0 | 1.6 | 0.00 | 0.00 | 0.00 | 71 | 1011.6 |
| 20260504012858 | 6 | 285 | 0.0 | 0.0 | 0.00 | 0.00 | 0.00 | 74 | 1011.7 |
| 20260504012357 | 6 | 283 | 0.0 | 0.0 | 0.00 | 0.00 | 0.00 | 72 | 1011.5 |
| 20260504011854 | 6 | 290 | 0.0 | 0.0 | 0.00 | 0.00 | 0.00 | 70 | 1011.4 |
| 20260504011350 | 6 | 290 | 0.0 | 0.0 | 0.00 | 0.00 | 0.00 | 70 | 1011.3 |
| 20260504010846 | 6 | 290 | 0.0 | 0.0 | 0.00 | 0.00 | 0.00 | 70 | 1011.3 |
| 20260504010342 | 6 | 290 | 0.0 | 0.0 | 0.00 | 0.00 | 0.00 | 68 | 1011.4 |
| 20260504005839 | 6 | 290 | 0.0 | 0.0 | 0.00 | 0.00 | 0.00 | 66 | 1011.4 |
| 20260504005336 | 6 | 289 | 0.0 | 0.0 | 0.00 | 0.00 | 0.00 | 62 | 1011.4 |
| 20260504004833 | 7 | 289 | 0.0 | 0.0 | 0.00 | 0.00 | 0.00 | 62 | 1011.5 |
| 20260504004331 | 7 | 289 | 0.0 | 0.0 | 0.00 | 0.00 | 0.00 | 63 | 1011.5 |
| 20260504003827 | 7 | 283 | 0.0 | 0.0 | 0.00 | 0.00 | 0.00 | 67 | 1011.3 |
| 20260504003324 | 8 | 283 | 0.0 | 0.0 | 0.00 | 0.00 | 0.00 | 62 | 1011.3 |
| 20260504002821 | 8 | 282 | 0.0 | 0.0 | 0.00 | 0.00 | 0.00 | 55 | 1011.2 |
| 20260504002317 | 8 | 280 | 0.0 | 0.0 | 0.00 | 0.00 | 0.00 | 58 | 1011.1 |
| 20260504001815 | 9 | 209 | 0.0 | 0.0 | 0.00 | 0.00 | 0.00 | 53 | 1011.3 |
| 20260504001312 | 9 | 268 | 0.0 | 0.0 | 0.00 | 0.00 | 0.00 | 51 | 1011.3 |
| 20260504000809 | 9 | 234 | 0.0 | 1.6 | 0.00 | 0.00 | 0.00 | 46 | 1011.6 |
| 20260504000306 | 10 | 292 | 0.0 | 1.6 | 0.00 | 0.00 | 0.00 | 54 | 1011.2 |
| 20260503235804 | 10 | 253 | 0.0 | 0.0 | 0.00 | 0.00 | 0.00 | 47 | 1011.5 |
| 20260503235301 | 10 | 248 | 0.0 | 1.6 | 0.00 | 0.00 | 0.00 | 47 | 1011.5 |
| 20260503234759 | 10 | 229 | 0.0 | 3.2 | 0.00 | 0.00 | 0.00 | 44 | 1011.5 |
| 20260503234256 | 10 | 23 | 0.0 | 1.6 | 0.00 | 0.00 | 0.00 | 49 | 1011.5 |
| 20260503233754 | 10 | 255 | 0.0 | 1.6 | 0.00 | 0.00 | 0.00 | 49 | 1011.5 |
| 20260503233249 | 11 | 140 | 0.0 | 0.0 | 0.00 | 0.00 | 0.00 | 44 | 1011.5 |
| 20260503232746 | 11 | 196 | 0.0 | 4.8 | 0.00 | 0.00 | 0.00 | 43 | 1011.5 |
| 20260503232243 | 11 | 304 | 8.0 | 11.3 | 0.00 | 0.00 | 0.00 | 43 | 1011.3 |
| 20260503231741 | 11 | 132 | 1.6 | 6.4 | 0.00 | 0.00 | 0.00 | 41 | 1011.6 |
| 20260503231238 | 11 | 189 | 14.5 | 20.9 | 0.00 | 0.00 | 0.00 | 40 | 1011.4 |
| 20260503230734 | 12 | 301 | 1.6 | 3.2 | 0.00 | 0.00 | 0.00 | 44 | 1011.6 |
| 20260503230232 | 12 | 164 | 4.8 | 4.8 | 0.00 | 0.00 | 0.00 | 41 | 1011.6 |
| 20260503225724 | 12 | 161 | 3.2 | 11.3 | 0.00 | 0.00 | 0.00 | 41 | 1011.6 |
| 20260503225223 | 12 | 306 | 4.8 | 6.4 | 0.00 | 0.00 | 0.00 | 43 | 1011.5 |
| 20260503224720 | 12 | 190 | 3.2 | 9.7 | 0.00 | 0.00 | 0.00 | 39 | 1011.5 |
| 20260503224218 | 12 | 240 | 1.6 | 4.8 | 0.00 | 0.00 | 0.00 | 40 | 1011.4 |
| 20260503223715 | 12 | 303 | 8.0 | 11.3 | 0.00 | 0.00 | 0.00 | 41 | 1011.8 |
| 20260503223213 | 12 | 4 | 0.0 | 3.2 | 0.00 | 0.00 | 0.00 | 48 | 1011.5 |
| 20260503222709 | 12 | 176 | 1.6 | 4.8 | 0.00 | 0.00 | 0.00 | 37 | 1011.3 |
| 20260503222207 | 12 | 175 | 3.2 | 11.3 | 0.00 | 0.00 | 0.00 | 40 | 1011.7 |
| 20260503221705 | 12 | 331 | 8.0 | 12.9 | 0.00 | 0.00 | 0.00 | 40 | 1011.6 |
| 20260503221202 | 12 | 316 | 4.8 | 9.7 | 0.00 | 0.00 | 0.00 | 39 | 1011.5 |
| 20260503220659 | 12 | 273 | 3.2 | 9.7 | 0.00 | 0.00 | 0.00 | 40 | 1011.7 |
| 20260503220155 | 12 | 188 | 1.6 | 9.7 | 0.00 | 0.00 | 0.00 | 39 | 1011.6 |
| 20260503215653 | 12 | 181 | 4.8 | 9.7 | 0.00 | 0.00 | 0.00 | 37 | 1011.6 |
| 20260503215149 | 12 | 214 | 6.4 | 17.7 | 0.00 | 0.00 | 0.00 | 39 | 1011.7 |
| 20260503214648 | 12 | 262 | 8.0 | 12.9 | 0.00 | 0.00 | 0.00 | 39 | 1011.7 |
| 20260503214143 | 12 | 158 | 3.2 | 9.7 | 0.00 | 0.00 | 0.00 | 39 | 1011.5 |
| 20260503213637 | 12 | 288 | 14.5 | 22.5 | 0.00 | 0.00 | 0.00 | 40 | 1011.5 |
| 20260503213133 | 12 | 296 | 4.8 | 11.3 | 0.00 | 0.00 | 0.00 | 39 | 1011.6 |
| 20260503212631 | 13 | 175 | 9.7 | 14.5 | 0.00 | 0.00 | 0.00 | 40 | 1011.6 |
| 20260503212128 | 13 | 169 | 1.6 | 11.3 | 0.00 | 0.00 | 0.00 | 36 | 1011.4 |
| 20260503211626 | 12 | 155 | 3.2 | 14.5 | 0.00 | 0.00 | 0.00 | 38 | 1011.4 |
| 20260503211121 | 12 | 267 | 4.8 | 11.3 | 0.00 | 0.00 | 0.00 | 44 | 1011.7 |
| 20260503210618 | 12 | 163 | 8.0 | 16.1 | 0.00 | 0.00 | 0.00 | 42 | 1011.5 |
| 20260503210114 | 12 | 109 | 3.2 | 12.9 | 0.00 | 0.00 | 0.00 | 39 | 1011.6 |
| 20260503205611 | 12 | 198 | 3.2 | 12.9 | 0.00 | 0.00 | 0.00 | 40 | 1011.6 |
| 20260503205107 | 12 | 152 | 12.9 | 25.7 | 0.00 | 0.00 | 0.00 | 40 | 1012.0 |
| 20260503204604 | 12 | 262 | 4.8 | 25.7 | 0.00 | 0.00 | 0.00 | 42 | 1012.0 |
| 20260503204101 | 12 | 222 | 6.4 | 16.1 | 0.00 | 0.00 | 0.00 | 39 | 1011.7 |
| 20260503203558 | 12 | 297 | 4.8 | 14.5 | 0.00 | 0.00 | 0.00 | 39 | 1012.1 |
| 20260503203055 | 12 | 171 | 8.0 | 11.3 | 0.00 | 0.00 | 0.00 | 39 | 1012.2 |
| 20260503202553 | 12 | 347 | 8.0 | 14.5 | 0.00 | 0.00 | 0.00 | 42 | 1012.0 |
| 20260503201918 | 12 | 250 | 12.9 | 22.5 | 0.00 | 0.00 | 0.00 | 38 | 1012.3 |
| 20260503201415 | 12 | 250 | 12.9 | 22.5 | 0.00 | 0.00 | 0.00 | 38 | 1012.3 |
| 20260503200912 | 12 | 296 | 6.4 | 11.3 | 0.00 | 0.00 | 0.00 | 40 | 1012.3 |
| 20260503200408 | 12 | 198 | 8.0 | 12.9 | 0.00 | 0.00 | 0.00 | 39 | 1012.4 |
| 20260503195905 | 12 | 212 | 4.8 | 11.3 | 0.00 | 0.00 | 0.00 | 40 | 1012.6 |
| 20260503195402 | 12 | 300 | 6.4 | 12.9 | 0.00 | 0.00 | 0.00 | 41 | 1012.6 |
| 20260503194859 | 12 | 149 | 16.1 | 22.5 | 0.00 | 0.00 | 0.00 | 42 | 1012.5 |
| 20260503194355 | 12 | 301 | 6.4 | 11.3 | 0.00 | 0.00 | 0.00 | 44 | 1012.4 |
| 20260503193851 | 12 | 341 | 4.8 | 6.4 | 0.00 | 0.00 | 0.00 | 44 | 1012.7 |
| 20260503193347 | 11 | 222 | 3.2 | 16.1 | 0.00 | 0.00 | 0.00 | 42 | 1012.7 |
| 20260503192843 | 11 | 235 | 1.6 | 6.4 | 0.00 | 0.00 | 0.00 | 40 | 1012.7 |
| 20260503192339 | 12 | 241 | 4.8 | 11.3 | 0.00 | 0.00 | 0.00 | 39 | 1012.8 |
| 20260503191835 | 11 | 302 | 1.6 | 6.4 | 0.00 | 0.00 | 0.00 | 43 | 1012.9 |
| 20260503191332 | 11 | 219 | 4.8 | 11.3 | 0.00 | 0.00 | 0.00 | 44 | 1013.0 |
| 20260503190829 | 12 | 308 | 6.4 | 22.5 | 0.00 | 0.00 | 0.00 | 47 | 1012.8 |
| 20260503190326 | 12 | 144 | 6.4 | 9.7 | 0.00 | 0.00 | 0.00 | 39 | 1013.0 |
| 20260503185823 | 11 | 326 | 6.4 | 11.3 | 0.00 | 0.00 | 0.00 | 43 | 1012.9 |
| 20260503185319 | 11 | 196 | 4.8 | 9.7 | 0.00 | 0.00 | 0.00 | 44 | 1013.1 |
| 20260503184820 | 11 | 240 | 8.0 | 20.9 | 0.00 | 0.00 | 0.00 | 39 | 1013.4 |
| 20260503184316 | 11 | 309 | 8.0 | 14.5 | 0.00 | 0.00 | 0.00 | 42 | 1013.3 |
| 20260503183811 | 11 | 312 | 3.2 | 6.4 | 0.00 | 0.00 | 0.00 | 41 | 1013.2 |
| 20260503183309 | 11 | 248 | 6.4 | 17.7 | 0.00 | 0.00 | 0.00 | 43 | 1013.3 |
| 20260503182806 | 11 | 148 | 8.0 | 29.0 | 0.00 | 0.00 | 0.00 | 44 | 1013.3 |
| 20260503182306 | 11 | 328 | 4.8 | 4.8 | 0.00 | 0.00 | 0.00 | 40 | 1013.3 |
| 20260503181802 | 11 | 310 | 14.5 | 17.7 | 0.00 | 0.00 | 0.00 | 47 | 1013.5 |
| 20260503181259 | 10 | 315 | 12.9 | 17.7 | 0.00 | 0.00 | 0.00 | 46 | 1013.4 |
| 20260503180755 | 11 | 319 | 1.6 | 17.7 | 0.00 | 0.00 | 0.00 | 42 | 1013.4 |
| 20260503180254 | 11 | 322 | 9.7 | 25.7 | 0.00 | 0.00 | 0.00 | 50 | 1013.3 |
| 20260503175749 | 11 | 341 | 3.2 | 11.3 | 0.00 | 0.00 | 0.00 | 49 | 1013.6 |
| 20260503175248 | 11 | 322 | 8.0 | 14.5 | 0.00 | 0.00 | 0.00 | 43 | 1013.9 |
| 20260503174743 | 10 | 336 | 16.1 | 20.9 | 0.00 | 0.00 | 0.00 | 49 | 1013.4 |
| 20260503174242 | 10 | 247 | 11.3 | 25.7 | 0.00 | 0.00 | 0.00 | 46 | 1013.9 |
| 20260503173742 | 11 | 240 | 4.8 | 6.4 | 0.00 | 0.00 | 0.00 | 47 | 1014.0 |
| 20260503173238 | 10 | 303 | 3.2 | 9.7 | 0.00 | 0.00 | 0.00 | 46 | 1013.7 |
| 20260503172735 | 10 | 160 | 3.2 | 22.5 | 0.00 | 0.00 | 0.00 | 51 | 1013.7 |
| 20260503172232 | 10 | 263 | 1.6 | 11.3 | 0.00 | 0.00 | 0.00 | 49 | 1014.1 |
| 20260503171729 | 10 | 319 | 12.9 | 17.7 | 0.00 | 0.00 | 0.00 | 47 | 1013.9 |
| 20260503171226 | 9 | 166 | 1.6 | 11.3 | 0.00 | 0.00 | 0.00 | 52 | 1014.0 |
| 20260503170723 | 9 | 187 | 8.0 | 20.9 | 0.00 | 0.00 | 0.00 | 53 | 1014.1 |
| 20260503170220 | 10 | 255 | 19.3 | 25.7 | 0.00 | 0.00 | 0.00 | 48 | 1013.9 |
| 20260503160141 | 8 | 150 | 9.7 | 14.5 | 0.00 | 0.00 | 0.00 | 55 | 1014.6 |
| 20260503150611 | 7 | 330 | 4.8 | 12.9 | 0.00 | 0.00 | 0.00 | 57 | 1015.0 |
| 20260503150108 | 7 | 302 | 8.0 | 14.5 | 0.00 | 0.00 | 0.00 | 58 | 1014.8 |
| 20260503131001 | 4 | 303 | 9.7 | 12.9 | 0.00 | 0.00 | 0.00 | 78 | 1014.8 |
| 20260503130459 | 5 | 166 | 8.0 | 14.5 | 0.00 | 0.00 | 0.00 | 78 | 1014.9 |
| 20260503110343 | 0 | 283 | 3.2 | 4.8 | 0.00 | 0.00 | 0.00 | 95 | 1013.5 |